Weather in Sosnovyy Solonets

Russia / Samara Oblast     53°17′03″N   49°32′04″E
temp.,
°C
wind,
m/s
gust,
m/s
humid.,
%
clouds,
%
prec.,
mm/h
press.,
hPa
HPBL,
m
1 march, mon
mon101:00−16nnw499798 0.1 1016246
04:00−18nnw489899 0.1 1018187
07:00−18nnw3898100 0.1 1020198
10:00−16nnw5995100 0.1 1022359
13:00−13nnw5792100 0.1 1022480
16:00−12nnw4790100 0.1 1022487
19:00−17nnw119764 0.0 102220
22:00−17ssw229963 0.0 102220
2 march, tue
tue201:00−15ssw3310098 0.0 102055
04:00−14sw499899 0.1 1017199
07:00−12sw61197100 0.1 1013331
10:00−8sw81396100 2.0 1010551
13:00−2sw91496100 1.4 1007757
16:00−1sw91598100 2.4 1004817
19:000wsw71298100 1.3 1003591
22:00−2w4897100 1.6 1003198
3 march, wed
wed301:00−5wnw359475 0.0 100296
04:00−7wnw349354 0.0 100362
07:00−9wnw239420 0.0 100421
10:00−5nw489354 0.1 1005342
13:00−4wnw589094 0.0 1005641
16:00−4wnw688897 0.1 1006749
19:00−7wnw499290 0.1 1007227
22:00−9nw5119173 0.2 1009310
4 march, thu
thu401:00−12wnw459348 0.0 101089
04:00−13w349525 0.0 101157
07:00−13wsw349759 0.0 101073
10:00−8sw489675 0.0 1011320
13:00−3sw7119298 0.1 1009747
16:00−2sw9149299 0.2 1007868
19:00−2sw91691100 0.9 1005713
22:00−1sw91790100 0.9 1004875
5 march, fri
fri501:00−2sw81688100 0.0 1003862
04:00−2sw71589100 0.0 1003639
07:00−3sw71592100 0.0 1003507
10:000sw71298100 0.4 1005640
13:00+1sw613100100 0.6 1005580
16:00−2n4798100 2.1 1007262
19:00−4n2394100 0.4 100948
22:00−5e0197100 0.5 101021